Weather History for Newport News, VA

Change the Weather History Date:

Tuesday, February 12, 2013

  Actual Average Record
Temperature  
Mean Temperature 54 °F -  
Max Temperature 60 °F 49 °F 73 °F (1999)
Min Temperature 48 °F 28 °F 11 °F (1968)
Degree Days  
Heating Degree Days 11    
Growing Degree Days 4 (Base 50)    
Moisture  
Dew Point 33 °F    
Average Humidity 45    
Maximum Humidity 60    
Minimum Humidity 26    
Precipitation  
Precipitation 0.00 in - - ()
Sea Level Pressure  
Sea Level Pressure 29.95 in    
Wind  
Wind Speed 8 mph (WSW)    
Max Wind Speed 13 mph    
Max Gust Speed 18 mph    
Visibility 10 miles    
Events      
Averages and records for this station are not official NWS values.
T = Trace of Precipitation, MM = Missing Value Source: NWS Daily Summary

Daily Weather History Graph

Daily Weather History Graph

Search for Another Location

Airport:

Trip Planner

Search our weather history database for the weather conditions in past years. The results will help you decide how hot, cold, wet, or windy it might be!

Date:

Astronomy

Feb. 12, 2013 Rise Set
Actual Time 6:57 AM EST 5:43 PM EST
Civil Twilight 6:31 AM EST 6:09 PM EST
Nautical Twilight 6:00 AM EST 6:40 PM EST
Astronomical Twilight 5:30 AM EST 7:10 PM EST
Moon 7:58 AM EST (2/12) 8:35 PM EST (2/12)
Length of Visible Light 11h 38m
Length of Day
10h 45m
Waxing Crescent, 7% of the Moon is Illuminated
Feb 12
Waxing Crescent
Feb 17
First Quarter
Feb 25
Full
Mar 4
Last Quarter
Mar 11
New

Hourly Weather History & Observations

Time (EST) Temp. Dew Point Humidity Pressure Visibility Wind Dir Wind Speed Gust Speed Precip Events Conditions
12:54 AM 60.1 °F 46.0 °F 60% 29.85 in 10.0 mi West 12.7 mph - N/A   Clear
1:54 AM 59.0 °F 43.0 °F 55% 29.86 in 10.0 mi West 11.5 mph - N/A   Clear
2:54 AM 57.9 °F 42.1 °F 56% 29.87 in 10.0 mi West 12.7 mph - N/A   Clear
3:54 AM 55.9 °F 41.0 °F 57% 29.89 in 10.0 mi West 6.9 mph - N/A   Clear
4:54 AM 53.1 °F 37.9 °F 57% 29.91 in 10.0 mi West 4.6 mph - N/A   Clear
5:54 AM 51.1 °F 37.0 °F 59% 29.94 in 10.0 mi West 5.8 mph - N/A   Clear
6:54 AM 48.9 °F 34.0 °F 56% 29.97 in 10.0 mi West 5.8 mph - N/A   Clear
7:54 AM 50.0 °F 34.0 °F 54% 29.98 in 10.0 mi West 3.5 mph - N/A   Clear
8:54 AM 52.0 °F 32.0 °F 47% 30.00 in 10.0 mi West 5.8 mph - N/A   Clear
9:54 AM 55.0 °F 30.0 °F 38% 30.02 in 10.0 mi WNW 6.9 mph - N/A   Clear
10:54 AM 55.9 °F 28.0 °F 34% 30.02 in 10.0 mi West 5.8 mph - N/A   Clear
11:54 AM 57.9 °F 26.1 °F 30% 30.02 in 10.0 mi West 11.5 mph 18.4 mph N/A   Clear
12:54 PM 59.0 °F 28.0 °F 31% 30.00 in 10.0 mi WSW 6.9 mph - N/A   Clear
1:54 PM 60.1 °F 25.0 °F 26% 29.96 in 10.0 mi West 6.9 mph - N/A   Clear
2:54 PM 59.0 °F 27.0 °F 29% 29.94 in 10.0 mi SW 10.4 mph - N/A   Clear
3:54 PM 59.0 °F 27.0 °F 29% 29.96 in 10.0 mi WSW 8.1 mph - N/A   Clear
4:54 PM 57.0 °F 28.9 °F 34% 29.96 in 10.0 mi SW 10.4 mph - N/A   Clear
5:54 PM 54.0 °F 30.9 °F 41% 29.97 in 10.0 mi SW 6.9 mph - N/A   Clear
6:54 PM 53.1 °F 30.9 °F 43% 29.97 in 10.0 mi SW 5.8 mph - N/A   Clear
7:54 PM 53.1 °F 30.9 °F 43% 29.96 in 10.0 mi SSW 3.5 mph - N/A   Clear
8:54 PM 50.0 °F 34.0 °F 54% 29.94 in 10.0 mi East 3.5 mph - N/A   Clear
9:54 PM 50.0 °F 33.1 °F 52% 29.94 in 10.0 mi Calm Calm - N/A   Clear
10:54 PM 52.0 °F 33.1 °F 49% 29.96 in 10.0 mi South 5.8 mph - N/A   Clear
11:54 PM 51.1 °F 34.0 °F 52% 29.95 in 10.0 mi Calm Calm - N/A   Overcast